Wind_Speed
35 37 39 39 38 38 34 32 29 24 24 23 27 25 22 33 24 22 23 22 21 21 22 21 19 19 21 23 23 22 21 19 16 15 14 14 14 13 13 12 11 10 9
37 37 38 40 39 40 38 36 34 32 28 25 23 21 22 24 27 24 25 24 26 26 24 24 23 22 23 24 24 23 22 21 18 16 16 15 15 16 16 15 14 14 12
32 36 38 40 41 39 41 39 38 37 34 31 29 25 22 27 32 30 28 32 28 27 27 27 26 23 24 24 24 24 23 21 21 18 17 16 17 16 16 16 17 18 17
29 36 37 35 42 43 41 43 42 40 36 36 38 33 28 28 29 31 34 28 32 29 30 28 28 25 25 24 23 23 24 24 23 23 18 18 17 16 15 15 17 18 20
24 26 35 39 38 41 43 44 45 43 40 39 37 38 33 27 27 34 36 36 36 34 32 31 30 28 27 25 23 22 22 22 24 22 22 22 20 19 16 16 17 17 18
25 28 29 32 42 42 42 45 44 45 44 41 36 39 36 32 31 34 34 37 37 36 38 32 33 30 29 27 24 22 22 22 22 23 23 23 23 22 22 22 21 22 21
24 26 29 32 34 43 44 44 47 46 46 43 40 38 37 38 33 33 30 40 40 41 39 34 33 34 31 28 25 24 24 24 23 22 23 24 23 24 24 25 26 26 24
27 28 28 30 35 37 45 46 46 51 49 49 44 40 38 35 32 33 32 35 42 37 41 37 37 36 33 33 29 25 23 23 24 23 23 22 22 23 24 25 27 28 27
29 30 31 28 31 36 39 47 46 48 51 50 45 42 39 37 36 33 39 35 39 44 43 48 41 42 38 41 36 33 27 26 25 26 26 27 25 25 27 29 30 31 29
34 34 35 34 31 33 37 43 48 44 39 48 44 45 42 39 35 38 34 27 37 32 35 26 51 48 51 41 42 39 36 32 28 24 24 23 22 24 25 26 27 30 32
34 34 32 32 31 35 31 37 40 41 45 44 39 38 41 36 34 20 19 22 19 23 27 29 38 55 54 45 46 44 32 37 32 29 27 25 27 29 30 30 30 32 34
27 28 29 31 33 33 34 33 35 36 40 36 40 39 35 27 23 18 15 13 17 16 17 8 19 18 31 30 34 40 50 41 34 28 29 30 33 35 35 36 35 38 39
17 20 25 27 30 34 33 33 38 36 38 43 38 36 38 28 24 23 20 16 16 11 12 11 11 15 20 22 22 29 28 28 26 34 29 28 28 33 31 36 40 39 41
13 13 13 17 22 26 27 29 35 44 36 48 37 38 35 30 27 26 24 20 15 13 9 9 10 13 15 16 20 18 23 21 24 21 24 28 30 33 35 38 40 37 39
15 7 3 3 7 17 23 23 37 39 39 34 39 33 35 33 31 29 27 24 21 18 15 14 14 14 14 15 15 16 17 21 24 26 29 31 30 32 35 35 37 38 40
19 9 9 11 5 8 17 28 25 26 27 42 34 37 35 35 34 32 30 29 26 25 22 22 20 20 20 17 17 18 21 24 28 31 32 33 32 33 33 33 35 37 39
15 16 16 15 15 6 11 16 29 21 27 32 30 30 34 37 33 32 32 32 32 33 31 30 27 26 27 24 23 24 26 28 29 32 35 37 38 39 40 39 38 40 41
13 14 14 16 20 15 4 5 13 18 19 27 29 30 29 28 30 32 33 33 34 35 34 32 31 31 31 28 27 27 28 31 33 34 37 40 43 45 46 45 44 45 43
12 13 15 18 19 19 10 5 16 22 25 28 30 30 28 27 28 28 29 31 32 34 36 35 33 33 34 33 31 30 34 36 38 38 39 39 41 42 44 45 45 46 46
12 13 15 18 21 20 20 14 8 6 16 20 21 23 24 28 30 30 31 32 35 34 34 36 38 38 38 37 34 35 36 38 37 39 40 41 42 41 44 46 47 48 47
13 16 16 18 20 20 21 17 11 11 10 8 8 10 12 14 18 23 29 34 39 42 41 40 40 38 34 33 33 36 40 40 38 39 39 39 41 43 43 46 47 48 47
15 16 16 18 18 19 21 21 20 17 14 13 11 9 7 4 5 10 15 16 18 21 25 28 33 38 41 41 41 38 35 35 35 35 34 33 35 36 38 41 43 46 48
20 21 21 20 20 20 20 20 23 24 23 19 10 8 9 6 3 5 6 4 8 10 12 14 18 20 22 26 28 27 25 27 28 31 30 32 37 39 40 41 44 46 45
23 24 25 25 24 23 22 22 22 21 23 23 23 18 14 14 17 12 7 3 3 2 5 10 8 13 15 18 21 22 22 24 23 23 24 26 29 31 33 36 38 38 39
22 23 24 25 26 26 26 26 26 26 27 26 23 20 18 17 16 16 15 14 6 4 6 6 10 11 12 15 18 18 17 19 20 21 21 22 23 25 26 27 27 28 30
20 21 22 23 24 25 26 26 27 27 27 26 26 25 23 22 20 18 17 15 12 9 7 5 5 6 6 7 8 8 9 10 11 11 12 13 15 16 17 18 19 21 22
Wind_Direction
225 225 219 216 218 218 217 214 211 227 230 230 241 238 243 219 229 233 239 242 244 239 235 231 229 228 225 222 219 219 221 223 223 226 229 232 234 237 235 237 243 245 250
230 230 229 222 223 224 221 219 216 216 221 231 240 246 249 255 243 229 239 239 245 242 237 236 234 234 228 226 226 224 223 222 222 229 233 238 240 240 242 244 246 249 250
236 235 235 232 228 229 229 226 224 220 213 228 235 235 243 241 251 242 233 244 244 249 246 241 236 236 231 226 225 225 226 225 225 229 239 243 245 246 246 249 253 256 255
245 241 240 239 237 235 232 232 232 228 222 215 236 239 243 249 254 247 242 246 248 247 252 247 239 238 233 231 230 229 229 230 232 234 238 244 245 244 247 254 257 262 267
262 253 247 243 240 241 238 236 235 238 233 226 228 233 242 247 252 243 244 239 246 245 248 246 238 235 233 236 234 235 238 237 240 240 239 243 246 247 246 251 259 263 266
263 264 262 254 246 242 240 238 236 238 240 236 236 232 239 245 244 235 247 234 237 237 247 242 236 232 230 230 232 235 237 241 242 244 246 247 249 251 255 257 258 263 265
273 269 267 263 257 250 243 240 238 237 241 241 233 237 237 244 252 239 247 239 230 232 238 239 234 234 232 232 231 234 237 240 242 245 250 248 252 255 259 265 263 263 265
281 279 274 271 263 256 250 240 240 238 236 240 239 234 237 243 241 250 236 240 235 239 233 236 233 234 236 238 240 241 244 247 245 246 250 256 255 259 263 265 268 270 276
288 285 277 274 273 264 255 244 240 238 240 239 240 237 235 240 245 240 240 236 243 239 240 229 234 235 234 237 240 238 243 251 246 242 244 249 255 262 269 271 272 276 277
290 287 277 269 273 264 258 246 240 236 230 245 236 237 237 242 244 253 231 233 242 251 244 253 227 233 233 244 243 240 231 241 242 243 248 250 257 265 269 273 274 276 280
290 285 275 259 261 260 264 248 242 233 221 234 232 234 232 240 250 258 222 231 243 275 287 259 244 240 233 249 254 236 236 234 237 242 249 254 262 267 271 273 277 280 284
294 289 276 260 256 256 262 243 228 219 221 211 215 227 230 229 236 248 268 259 263 274 266 293 270 266 246 254 247 256 251 234 235 247 255 260 264 266 267 269 273 278 282
289 284 276 266 261 256 252 229 213 210 211 216 222 224 229 220 230 236 235 243 251 253 255 251 256 268 274 285 298 272 240 238 250 255 256 262 264 269 266 272 272 279 279
296 280 282 272 259 245 239 217 219 220 215 215 215 216 212 217 226 233 240 243 240 247 238 226 239 252 255 266 268 276 272 267 269 263 265 268 268 272 274 271 276 275 278
333 319 308 334 252 230 224 206 207 214 226 214 225 224 221 223 227 233 239 241 238 235 231 233 244 246 249 248 254 264 268 269 273 266 268 267 272 272 268 272 275 277 277
336 11 41 42 53 186 198 202 212 203 190 205 209 209 217 225 229 232 235 241 244 239 242 245 244 249 249 248 258 270 275 275 274 270 267 268 270 269 270 273 274 275 280
346 4 22 37 43 85 172 187 187 196 205 213 211 209 221 226 231 235 238 241 248 247 243 244 245 247 253 255 265 274 278 281 277 273 269 266 264 268 269 269 270 274 277
3 9 21 37 39 41 66 184 200 213 214 219 219 227 232 236 237 241 244 246 248 249 247 245 248 250 258 262 272 279 281 281 279 278 276 274 274 272 272 272 274 277 277
11 19 31 37 42 40 47 100 186 215 222 223 228 235 241 246 247 249 253 254 251 248 247 250 250 251 257 263 269 276 284 288 286 280 276 274 273 275 277 276 275 275 275
23 28 33 42 40 40 42 49 63 171 203 222 234 242 247 250 254 256 260 263 262 257 253 253 255 257 260 261 268 281 287 284 281 278 277 277 277 277 276 276 275 276 278
33 36 37 41 45 41 55 55 73 94 120 150 190 216 235 249 259 260 261 264 261 259 259 257 257 258 264 271 274 278 281 279 276 274 273 274 276 277 276 276 278 276 275
53 52 50 50 44 44 53 61 71 83 95 108 129 140 150 174 242 253 254 254 259 262 259 258 256 260 261 266 273 271 267 270 273 276 280 281 283 287 287 284 286 287 282
65 65 66 63 60 56 53 53 58 65 71 73 100 112 105 96 94 70 36 276 255 253 257 261 264 265 260 261 267 275 274 275 279 280 282 278 278 282 286 287 288 291 291
68 66 64 64 66 67 69 70 71 75 79 80 86 95 107 91 72 67 50 54 80 276 229 297 283 279 280 283 290 287 292 293 291 293 289 289 291 291 293 295 297 298 299
67 67 66 65 65 65 64 64 67 69 71 73 76 79 74 62 53 48 48 53 42 312 257 226 275 279 274 285 285 287 293 295 296 297 298 300 303 305 307 309 311 314 314
69 66 64 64 63 62 62 62 61 62 64 66 66 65 64 63 62 59 56 52 52 49 48 27 6 338 320 313 315 320 321 320 322 325 326 329 331 330 330 331 330 331 331
Height
3134 3135 3139 3142 3145 3145 3148 3150 3151 3156 3159 3162 3164 3161 3169 3171 3175 3179 3181 3183 3185 3187 3188 3189 3191 3193 3192 3193 3194 3196 3197 3199 3199 3200 3201 3201 3201 3202 3201 3201 3201 3201 3200
3127 3129 3131 3135 3138 3141 3143 3144 3147 3149 3153 3157 3158 3160 3165 3164 3166 3173 3175 3178 3180 3182 3183 3185 3187 3189 3190 3190 3191 3193 3194 3195 3196 3197 3198 3198 3199 3198 3198 3199 3198 3198 3197
3121 3122 3124 3127 3129 3133 3136 3139 3141 3143 3146 3152 3154 3156 3160 3163 3164 3166 3169 3173 3175 3179 3181 3181 3182 3185 3186 3187 3188 3189 3190 3191 3192 3193 3195 3196 3195 3195 3195 3195 3195 3195 3195
3114 3115 3116 3119 3121 3123 3127 3131 3134 3137 3139 3142 3147 3151 3153 3157 3160 3163 3166 3169 3172 3174 3177 3178 3179 3180 3182 3184 3185 3186 3187 3187 3189 3190 3191 3192 3192 3191 3192 3191 3191 3191 3192
3107 3108 3109 3110 3112 3114 3117 3121 3126 3130 3133 3135 3138 3142 3145 3150 3153 3155 3159 3163 3165 3168 3171 3173 3174 3176 3178 3180 3180 3182 3183 3184 3185 3186 3187 3188 3189 3188 3188 3187 3187 3188 3187
3101 3101 3101 3102 3102 3104 3107 3112 3116 3121 3125 3128 3130 3135 3140 3143 3145 3149 3153 3155 3158 3161 3166 3167 3169 3171 3173 3175 3176 3178 3179 3180 3181 3182 3183 3185 3185 3185 3184 3184 3184 3184 3183
3094 3094 3093 3093 3094 3094 3097 3101 3106 3111 3115 3119 3125 3128 3132 3135 3139 3141 3145 3148 3150 3154 3158 3161 3163 3166 3168 3171 3172 3173 3174 3175 3176 3178 3179 3180 3180 3180 3179 3179 3180 3179 3179
3086 3086 3086 3085 3085 3086 3086 3091 3095 3100 3105 3110 3115 3120 3126 3127 3130 3134 3136 3141 3144 3147 3152 3153 3156 3160 3163 3165 3167 3167 3169 3170 3171 3172 3173 3175 3175 3174 3174 3174 3173 3173 3172
3079 3078 3078 3078 3077 3076 3078 3080 3085 3090 3095 3100 3106 3112 3117 3121 3124 3125 3128 3131 3136 3139 3141 3142 3147 3151 3154 3156 3158 3160 3163 3165 3166 3167 3168 3169 3169 3169 3170 3169 3167 3166 3166
3070 3068 3068 3069 3069 3068 3068 3070 3075 3080 3087 3089 3097 3103 3110 3114 3116 3118 3119 3120 3128 3130 3132 3130 3134 3140 3143 3143 3148 3149 3152 3157 3160 3161 3162 3163 3164 3164 3164 3163 3161 3159 3158
3061 3058 3058 3057 3059 3059 3059 3060 3065 3070 3077 3082 3089 3095 3102 3107 3110 3108 3108 3110 3121 3122 3124 3124 3127 3128 3135 3137 3136 3135 3137 3146 3152 3155 3156 3158 3159 3159 3158 3157 3156 3154 3151
3053 3050 3048 3047 3047 3049 3049 3051 3055 3062 3069 3073 3081 3089 3095 3100 3104 3106 3107 3112 3116 3116 3119 3117 3121 3122 3126 3127 3124 3129 3132 3137 3142 3146 3147 3150 3151 3151 3151 3149 3149 3147 3146
3048 3043 3041 3038 3037 3037 3038 3040 3046 3052 3060 3066 3073 3083 3089 3095 3099 3102 3107 3110 3112 3112 3113 3115 3117 3118 3121 3122 3123 3125 3125 3128 3133 3132 3137 3137 3141 3143 3144 3142 3140 3139 3138
3043 3039 3035 3030 3028 3027 3028 3032 3038 3044 3051 3061 3064 3073 3082 3088 3094 3097 3100 3104 3106 3108 3109 3111 3114 3117 3118 3120 3121 3121 3120 3123 3126 3126 3130 3133 3135 3134 3134 3133 3131 3130 3127
3040 3036 3031 3026 3024 3022 3023 3027 3032 3040 3043 3051 3061 3068 3076 3082 3087 3091 3094 3098 3101 3103 3105 3109 3112 3113 3115 3116 3118 3119 3120 3121 3123 3124 3124 3125 3126 3125 3125 3121 3121 3119 3117
3039 3033 3028 3025 3021 3019 3019 3023 3029 3035 3040 3049 3056 3063 3070 3075 3079 3084 3088 3091 3095 3098 3101 3104 3107 3109 3111 3113 3114 3115 3116 3116 3116 3117 3117 3117 3115 3116 3115 3112 3110 3110 3108
3040 3034 3026 3023 3019 3017 3019 3020 3024 3032 3037 3042 3050 3056 3062 3068 3073 3077 3081 3086 3089 3093 3096 3098 3100 3102 3103 3107 3107 3108 3108 3108 3107 3107 3106 3106 3106 3105 3102 3101 3100 3100 3099
3040 3036 3031 3026 3021 3017 3017 3019 3023 3029 3034 3039 3045 3051 3058 3062 3066 3070 3074 3078 3082 3085 3087 3090 3093 3094 3096 3098 3099 3099 3099 3099 3098 3096 3095 3094 3094 3092 3091 3090 3089 3088 3088
3042 3037 3032 3028 3025 3022 3019 3017 3023 3026 3030 3034 3040 3046 3050 3054 3059 3063 3067 3070 3073 3076 3079 3081 3084 3085 3086 3088 3089 3090 3090 3089 3087 3085 3083 3083 3082 3081 3079 3078 3076 3075 3074
3044 3039 3035 3030 3027 3025 3022 3020 3018 3020 3026 3030 3034 3039 3044 3048 3051 3055 3058 3061 3063 3066 3069 3072 3074 3075 3076 3078 3079 3080 3079 3078 3076 3074 3073 3072 3071 3069 3068 3067 3065 3063 3061
3045 3040 3036 3033 3030 3028 3025 3023 3022 3021 3022 3025 3029 3034 3038 3041 3044 3046 3048 3050 3052 3055 3057 3059 3062 3064 3067 3068 3069 3069 3069 3067 3066 3065 3064 3062 3060 3059 3058 3056 3054 3052 3050
3049 3045 3041 3038 3034 3032 3029 3028 3026 3024 3024 3025 3028 3032 3035 3038 3041 3042 3043 3044 3045 3045 3047 3048 3051 3053 3056 3058 3059 3059 3058 3057 3056 3056 3055 3055 3053 3052 3049 3047 3045 3041 3038
3052 3049 3046 3043 3040 3038 3035 3032 3030 3028 3028 3028 3029 3032 3034 3037 3040 3039 3039 3039 3041 3042 3043 3044 3045 3046 3047 3048 3049 3049 3049 3049 3049 3048 3046 3045 3044 3041 3038 3036 3033 3029 3025
3056 3054 3051 3048 3046 3044 3042 3040 3038 3036 3035 3034 3034 3036 3040 3040 3038 3038 3038 3039 3040 3041 3042 3043 3044 3045 3045 3044 3044 3043 3043 3042 3040 3039 3038 3036 3034 3033 3028 3025 3023 3019 3015
3060 3058 3056 3054 3052 3049 3047 3045 3043 3041 3039 3038 3038 3039 3039 3039 3038 3039 3039 3039 3040 3040 3041 3042 3043 3042 3042 3042 3041 3040 3038 3037 3036 3035 3033 3031 3028 3026 3023 3020 3016 3012 3008
3064 3062 3060 3058 3056 3054 3052 3050 3048 3046 3044 3044 3044 3043 3043 3043 3043 3043 3043 3042 3042 3042 3042 3042 3041 3040 3040 3040 3038 3037 3036 3035 3034 3032 3030 3027 3025 3023 3019 3016 3012 3007 3002